User: anonymous   Login
Location: Invercargill
(46.4000°S, 168.3500°E)
Time: 22:04:24
(UTC+12:00)
Language:

Vanguard 2 Rocket - Orbit

View from above orbital plane
View from above orbital plane
View from above satellite
View from above satellite

Ground track
Ground track

The orbit data is extracted from the following two-line orbital elements,

1    12U 59001B   19236.51250351  .00000226  00000-0  11924-3 0  9991
2    12  32.9100 313.3870 1667300 309.5180  36.9236 11.44290884488419
Epoch (UTC): 24 August 2019 12:18:00
Eccentricity: 0.1667300
inclination: 32.9100°
perigee height: 553 km
apogee height: 3327 km
right ascension of ascending node: 313.3870°
argument of perigee: 309.5180°
revolutions per day: 11.44290884
mean anomaly at epoch: 36.9236°
orbit number at epoch: 48841

The dashed part of the orbit path shows where the satellite is in the earth's shadow,  

DLR